• Em Portugal
  • Lista de países
  • Para 7 dias
  • Temperatura da água
  • Mapas de satélite
  • Mapa do tempo
  • Widgets de tempo
  • user-avatar
    Iniciar Sessão

    Previsão horária em Isfahan

    Hoje, 24 Setembro, Segunda-feira

    Tempo Temperatura Precipitação Vento Pressão Humidade
    00:00 +26°C° 0 mm 2 m/s 633 mmHg 18%
    01:00 +25°C° 0 mm 2 m/s 633 mmHg 19%
    02:00 +25°C° 0 mm 2 m/s 633 mmHg 20%
    03:00 +24°C° 0 mm 1 m/s 632 mmHg 20%
    04:00 +23°C° 0 mm 1 m/s 632 mmHg 21%
    05:00 +23°C° 0 mm 1 m/s 632 mmHg 21%
    06:00 +23°C° 0 mm 1 m/s 632 mmHg 21%
    07:00 +25°C° 0 mm 1 m/s 633 mmHg 18%
    08:00 +26°C° 0 mm 1 m/s 633 mmHg 16%
    09:00 +28°C° 0 mm 2 m/s 634 mmHg 14%
    10:00 +29°C° 0 mm 2 m/s 634 mmHg 12%
    11:00 +30°C° 0 mm 2 m/s 634 mmHg 10%
    12:00 +32°C° 0 mm 2 m/s 634 mmHg 7%
    13:00 +33°C° 0 mm 3 m/s 634 mmHg 7%
    14:00 +33°C° 0 mm 3 m/s 633 mmHg 6%
    15:00 +34°C° 0 mm 4 m/s 633 mmHg 4%
    16:00 +32°C° 0 mm 5 m/s 633 mmHg 6%
    17:00 +30°C° 0 mm 5 m/s 633 mmHg 8%
    18:00 +29°C° 0 mm 6 m/s 633 mmHg 9%
    19:00 +28°C° 0 mm 5 m/s 633 mmHg 12%
    20:00 +27°C° 0 mm 5 m/s 633 mmHg 14%
    21:00 +26°C° 0 mm 4 m/s 633 mmHg 16%
    22:00 +25°C° 0 mm 3 m/s 633 mmHg 17%
    23:00 +25°C° 0 mm 3 m/s 633 mmHg 19%

    Amanhã, 25 Setembro, Terça-feira

    Tempo Temperatura Precipitação Vento Pressão Humidade
    00:00 +24°C° 0 mm 2 m/s 633 mmHg 20%
    01:00 +23°C° 0 mm 2 m/s 633 mmHg 22%
    02:00 +23°C° 0 mm 2 m/s 633 mmHg 23%
    03:00 +21°C° 0 mm 2 m/s 633 mmHg 25%
    04:00 +21°C° 0 mm 2 m/s 633 mmHg 27%
    05:00 +21°C° 0 mm 1 m/s 633 mmHg 28%
    06:00 +21°C° 0 mm 1 m/s 633 mmHg 30%
    07:00 +22°C° 0 mm 1 m/s 633 mmHg 28%
    08:00 +24°C° 0 mm 1 m/s 634 mmHg 25%
    09:00 +25°C° 0 mm 1 m/s 634 mmHg 23%
    10:00 +26°C° 0 mm 1 m/s 634 mmHg 21%
    11:00 +27°C° 0 mm 1 m/s 634 mmHg 19%
    12:00 +28°C° 0 mm 1 m/s 634 mmHg 17%
    13:00 +28°C° 0 mm 1 m/s 634 mmHg 15%
    14:00 +29°C° 0 mm 1 m/s 633 mmHg 14%
    15:00 +29°C° 0 mm 1 m/s 633 mmHg 13%
    16:00 +29°C° 0 mm 2 m/s 633 mmHg 14%
    17:00 +28°C° 0 mm 2 m/s 633 mmHg 15%
    18:00 +28°C° 0 mm 3 m/s 633 mmHg 15%
    19:00 +27°C° 0 mm 3 m/s 633 mmHg 18%
    20:00 +26°C° 0 mm 3 m/s 633 mmHg 20%
    21:00 +25°C° 0 mm 3 m/s 633 mmHg 22%
    22:00 +25°C° 0 mm 3 m/s 633 mmHg 24%
    23:00 +24°C° 0 mm 2 m/s 633 mmHg 26%

    Depois de amanhã, 26 Setembro, Quarta-feira

    Tempo Temperatura Precipitação Vento Pressão Humidade
    00:00 +23°C° 0 mm 2 m/s 632 mmHg 28%
    01:00 +23°C° 0 mm 2 m/s 632 mmHg 29%
    02:00 +22°C° 0 mm 1 m/s 632 mmHg 30%
    03:00 +21°C° 0 mm 1 m/s 632 mmHg 31%
    04:00 +21°C° 0 mm 1 m/s 632 mmHg 32%
    05:00 +21°C° 0 mm 1 m/s 632 mmHg 32%
    06:00 +19°C° 0 mm 0 m/s 632 mmHg 32%
    07:00 +22°C° 0 mm 1 m/s 632 mmHg 29%
    08:00 +24°C° 0 mm 1 m/s 633 mmHg 26%
    09:00 +25°C° 0 mm 1 m/s 634 mmHg 23%
    10:00 +26°C° 0 mm 1 m/s 633 mmHg 21%
    11:00 +28°C° 0 mm 1 m/s 633 mmHg 18%
    12:00 +29°C° 0 mm 2 m/s 633 mmHg 16%
    13:00 +29°C° 0 mm 2 m/s 633 mmHg 15%
    14:00 +30°C° 0 mm 2 m/s 633 mmHg 14%
    15:00 +30°C° 0 mm 2 m/s 633 mmHg 12%
    16:00 +30°C° 0 mm 2 m/s 633 mmHg 13%
    17:00 +29°C° 0 mm 3 m/s 633 mmHg 13%
    18:00 +29°C° 0 mm 4 m/s 633 mmHg 14%
    19:00 +28°C° 0 mm 3 m/s 633 mmHg 15%
    20:00 +27°C° 0 mm 3 m/s 633 mmHg 16%
    21:00 +26°C° 0 mm 3 m/s 634 mmHg 18%
    22:00 +26°C° 0 mm 3 m/s 634 mmHg 18%
    23:00 +25°C° 0 mm 2 m/s 634 mmHg 19%

    27 Setembro, Quinta-feira

    Tempo Temperatura Precipitação Vento Pressão Humidade
    00:00 +24°C° 0 mm 2 m/s 633 mmHg 20%
    01:00 +23°C° 0 mm 1 m/s 633 mmHg 21%
    02:00 +23°C° 0 mm 1 m/s 633 mmHg 22%
    03:00 +22°C° 0 mm 1 m/s 633 mmHg 23%
    04:00 +22°C° 0 mm 1 m/s 633 mmHg 23%
    05:00 +22°C° 0 mm 1 m/s 633 mmHg 23%
    06:00 +22°C° 0 mm 1 m/s 634 mmHg 24%
    07:00 +23°C° 0 mm 1 m/s 634 mmHg 21%
    08:00 +25°C° 0 mm 1 m/s 635 mmHg 19%
    09:00 +26°C° 0 mm 2 m/s 636 mmHg 17%
    10:00 +27°C° 0 mm 2 m/s 636 mmHg 16%
    11:00 +28°C° 0 mm 2 m/s 636 mmHg 14%
    12:00 +29°C° 0 mm 3 m/s 635 mmHg 13%
    13:00 +30°C° 0 mm 3 m/s 635 mmHg 13%
    14:00 +30°C° 0 mm 3 m/s 635 mmHg 12%
    15:00 +31°C° 0 mm 3 m/s 635 mmHg 12%
    16:00 +30°C° 0 mm 4 m/s 635 mmHg 13%
    17:00 +29°C° 0 mm 5 m/s 635 mmHg 14%
    18:00 +28°C° 0 mm 5 m/s 635 mmHg 15%
    19:00 +27°C° 0 mm 5 m/s 635 mmHg 16%
    20:00 +26°C° 0 mm 4 m/s 636 mmHg 17%
    21:00 +26°C° 0 mm 4 m/s 636 mmHg 18%
    22:00 +25°C° 0 mm 3 m/s 636 mmHg 19%
    23:00 +24°C° 0 mm 2 m/s 635 mmHg 19%

    28 Setembro, Sexta-feira

    Tempo Temperatura Precipitação Vento Pressão Humidade
    00:00 +23°C° 0 mm 2 m/s 635 mmHg 20%
    01:00 +23°C° 0 mm 1 m/s 635 mmHg 21%
    02:00 +22°C° 0 mm 1 m/s 635 mmHg 21%
    03:00 +22°C° 0 mm 1 m/s 635 mmHg 22%
    04:00 +21°C° 0 mm 1 m/s 635 mmHg 22%
    05:00 +21°C° 0 mm 1 m/s 635 mmHg 23%
    06:00 +21°C° 0 mm 1 m/s 635 mmHg 23%
    07:00 +23°C° 0 mm 1 m/s 636 mmHg 21%
    08:00 +24°C° 0 mm 1 m/s 637 mmHg 19%
    09:00 +26°C° 0 mm 2 m/s 637 mmHg 17%
    10:00 +27°C° 0 mm 2 m/s 637 mmHg 16%
    11:00 +28°C° 0 mm 2 m/s 637 mmHg 15%
    12:00 +29°C° 0 mm 3 m/s 637 mmHg 14%
    13:00 +29°C° 0 mm 3 m/s 637 mmHg 13%
    14:00 +29°C° 0 mm 3 m/s 636 mmHg 13%
    15:00 +30°C° 0 mm 3 m/s 636 mmHg 12%
    16:00 +29°C° 0 mm 4 m/s 636 mmHg 13%
    17:00 +28°C° 0 mm 4 m/s 636 mmHg 14%
    18:00 +27°C° 0 mm 5 m/s 636 mmHg 14%
    19:00 +26°C° 0 mm 5 m/s 636 mmHg 16%
    20:00 +26°C° 0 mm 4 m/s 636 mmHg 17%
    21:00 +25°C° 0 mm 4 m/s 636 mmHg 18%
    22:00 +24°C° 0 mm 3 m/s 636 mmHg 20%
    23:00 +23°C° 0 mm 2 m/s 636 mmHg 21%

    29 Setembro, Sábado

    Tempo Temperatura Precipitação Vento Pressão Humidade
    00:00 +21°C° 0 mm 2 m/s 635 mmHg 23%
    01:00 +22°C° 0 mm 1 m/s 635 mmHg 24%
    02:00 +21°C° 0 mm 1 m/s 635 mmHg 25%
    03:00 +21°C° 0 mm 1 m/s 635 mmHg 26%
    04:00 +20°C° 0 mm 1 m/s 635 mmHg 27%
    05:00 +18°C° 0 mm 0 m/s 635 mmHg 27%
    06:00 +18°C° 0 mm 0 m/s 635 mmHg 28%
    07:00 +22°C° 0 mm 1 m/s 635 mmHg 25%
    08:00 +23°C° 0 mm 1 m/s 636 mmHg 22%
    09:00 +25°C° 0 mm 1 m/s 636 mmHg 20%
    10:00 +26°C° 0 mm 1 m/s 636 mmHg 18%
    11:00 +27°C° 0 mm 2 m/s 636 mmHg 17%
    12:00 +28°C° 0 mm 2 m/s 635 mmHg 15%
    13:00 +28°C° 0 mm 2 m/s 635 mmHg 14%
    14:00 +29°C° 0 mm 2 m/s 635 mmHg 13%
    15:00 +29°C° 0 mm 2 m/s 635 mmHg 13%
    16:00 +29°C° 0 mm 2 m/s 635 mmHg 13%
    17:00 +28°C° 0 mm 2 m/s 635 mmHg 14%
    18:00 +28°C° 0 mm 3 m/s 635 mmHg 14%
    19:00 +27°C° 0 mm 2 m/s 635 mmHg 15%
    20:00 +26°C° 0 mm 2 m/s 635 mmHg 17%
    21:00 +25°C° 0 mm 2 m/s 635 mmHg 18%
    22:00 +24°C° 0 mm 2 m/s 635 mmHg 19%
    23:00 +24°C° 0 mm 1 m/s 635 mmHg 20%
    Mostrar mais